Plymouth, MA

1:21 AM EDT on May 28, 2017 (GMT -0400)
Plymouth Municipal

Weather History for KPYM - March, 2013

Change the Weather History Date:

Tuesday, March 26, 2013

  Actual Average Record
Temperature  
Mean Temperature 42 °F -  
Max Temperature 50 °F 50 °F 74 °F (1949)
Min Temperature 33 °F 29 °F 9 °F (1960)
Degree Days  
Heating Degree Days 24    
Moisture  
Dew Point 26 °F    
Average Humidity 63    
Maximum Humidity 89    
Minimum Humidity 32    
Precipitation  
Precipitation 0.02 in - - ()
Sea Level Pressure  
Sea Level Pressure 29.60 in    
Wind  
Wind Speed 13 mph (NNW)    
Max Wind Speed 20 mph    
Max Gust Speed 32 mph    
Visibility 9 miles    
Events Rain , Snow    
Averages and records for this station are not official NWS values.
T = Trace of Precipitation, MM = Missing Value Source: NWS Daily Summary

Daily Weather History Graph

Daily Weather History Graph

Search for Another Location

Airport or City:

Trip Planner

Search our weather history database for the weather conditions in past years. The results will help you decide how hot, cold, wet, or windy it might be!

Date:

Astronomy

Mar. 26, 2013 Rise Set
Actual Time 6:35 AM EDT 7:02 PM EDT
Civil Twilight 6:07 AM EDT 7:30 PM EDT
Nautical Twilight 5:34 AM EDT 8:03 PM EDT
Astronomical Twilight 5:01 AM EDT 8:36 PM EDT
Moon 6:35 PM EDT (3/26) 5:50 AM EDT (3/26)
Length of Visible Light 13h 22m
Length of Day
12h 26m
Waxing Gibbous, 99% of the Moon is Illuminated
Mar 26
Waxing Gibbous
Mar 27
Full
Apr 3
Last Quarter
Apr 10
New
Apr 18
First Quarter

Hourly Weather History & Observations

Time (EDT) Temp. Windchill Dew Point Humidity Pressure Visibility Wind Dir Wind Speed Gust Speed Precip Events Conditions
12:01 AM 39.2 °F 30.8 °F 30.2 °F 70% 29.48 in 10.0 mi NE 15.0 mph 21.9 mph N/A   Overcast
12:13 AM 39.2 °F 30.5 °F 30.2 °F 70% 29.48 in 10.0 mi NNE 16.1 mph - 0.00 in Rain Light Rain
12:36 AM 37.4 °F 27.2 °F 30.2 °F 75% 29.48 in 10.0 mi NNE 19.6 mph 32.2 mph 0.00 in   Overcast
12:52 AM 37.0 °F 27.0 °F 30.0 °F 76% 29.49 in 9.0 mi NNE 18.4 mph 25.3 mph 0.00 in Snow Light Snow
12:59 AM 37.4 °F 27.8 °F 30.2 °F 75% 29.48 in 8.0 mi NNE 17.3 mph 27.6 mph 0.00 in Snow Light Snow
1:13 AM 37.4 °F 27.8 °F 28.4 °F 70% 29.49 in 10.0 mi NNE 17.3 mph 27.6 mph 0.00 in   Overcast
1:52 AM 37.0 °F 29.3 °F 30.9 °F 79% 29.49 in 10.0 mi North 11.5 mph - 0.00 in   Overcast
2:52 AM 37.9 °F 30.0 °F 28.0 °F 68% 29.50 in 10.0 mi NNE 12.7 mph 19.6 mph N/A   Overcast
3:27 AM 35.6 °F 27.1 °F 28.4 °F 75% 29.52 in 6.0 mi North 12.7 mph 27.6 mph 0.00 in Snow Light Snow
3:40 AM 35.6 °F 27.1 °F 30.2 °F 81% 29.52 in 7.0 mi North 12.7 mph 21.9 mph 0.00 in Snow Light Snow
3:52 AM 35.1 °F 26.9 °F 30.0 °F 82% 29.53 in 6.0 mi NNE 11.5 mph 23.0 mph 0.01 in Snow Light Snow
4:00 AM 35.6 °F 25.5 °F 30.2 °F 81% 29.53 in 3.0 mi North 17.3 mph 27.6 mph 0.00 in Snow Light Snow
4:03 AM 33.8 °F 23.9 °F 30.2 °F 87% 29.53 in 2.5 mi NNE 15.0 mph 27.6 mph 0.00 in Snow Light Snow
4:07 AM 33.8 °F 24.3 °F 30.2 °F 87% 29.53 in 3.0 mi North 13.8 mph 25.3 mph 0.00 in Snow Light Snow
4:22 AM 35.6 °F 28.6 °F 30.2 °F 81% 29.53 in 10.0 mi North 9.2 mph - 0.00 in   Overcast
4:40 AM 35.6 °F 29.2 °F 30.2 °F 81% 29.53 in 2.5 mi North 8.1 mph - 0.01 in Snow Light Snow
4:52 AM 34.0 °F 28.0 °F 30.0 °F 85% 29.54 in 6.0 mi NNE 6.9 mph 17.3 mph 0.01 in Snow Light Snow
5:23 AM 33.8 °F 27.0 °F 30.2 °F 87% 29.55 in 10.0 mi NNW 8.1 mph - 0.00 in   Overcast
5:31 AM 33.8 °F 27.0 °F 30.2 °F 87% 29.55 in 10.0 mi NNW 8.1 mph - 0.00 in   Overcast
5:52 AM 34.0 °F 28.8 °F 30.9 °F 89% 29.57 in 10.0 mi NW 5.8 mph - 0.00 in   Mostly Cloudy
6:52 AM 34.0 °F 28.0 °F 28.0 °F 79% 29.60 in 10.0 mi NW 6.9 mph - N/A   Mostly Cloudy
8:52 AM 39.0 °F 31.4 °F 27.0 °F 62% 29.64 in 10.0 mi North 12.7 mph 20.7 mph N/A   Mostly Cloudy
9:52 AM 41.0 °F 34.3 °F 23.0 °F 49% 29.65 in 10.0 mi North 11.5 mph 21.9 mph N/A   Clear
10:52 AM 43.0 °F 37.2 °F 21.9 °F 43% 29.67 in 10.0 mi NNE 10.4 mph 20.7 mph N/A   Partly Cloudy
11:52 AM 45.0 °F 38.5 °F 21.0 °F 39% 29.68 in 10.0 mi North 13.8 mph - N/A   Partly Cloudy
12:52 PM 46.0 °F 41.4 °F 19.9 °F 35% 29.68 in 10.0 mi NNW 9.2 mph - N/A   Partly Cloudy
1:52 PM 46.9 °F - 19.9 °F 34% 29.68 in 10.0 mi North 11.5 mph - N/A   Partly Cloudy
2:52 PM 50.0 °F - 21.0 °F 32% 29.67 in 10.0 mi NW 8.1 mph - N/A   Mostly Cloudy
3:52 PM 48.0 °F - 19.9 °F 33% 29.68 in 10.0 mi WNW 10.4 mph - N/A   Mostly Cloudy
4:52 PM 48.9 °F - 21.0 °F 33% 29.69 in 10.0 mi NW 12.7 mph 17.3 mph N/A   Scattered Clouds
5:52 PM 48.0 °F - 21.0 °F 34% 29.70 in 10.0 mi West 11.5 mph 17.3 mph N/A   Overcast
6:52 PM 45.0 °F 41.8 °F 21.9 °F 40% 29.72 in 10.0 mi WSW 5.8 mph - N/A   Mostly Cloudy
7:52 PM 41.0 °F 37.1 °F 21.9 °F 47% 29.74 in 10.0 mi WSW 5.8 mph - N/A   Scattered Clouds
8:52 PM 41.0 °F 36.4 °F 21.9 °F 47% 29.75 in 10.0 mi WSW 6.9 mph - N/A   Overcast
9:52 PM 39.0 °F 34.0 °F 21.9 °F 50% 29.77 in 10.0 mi WSW 6.9 mph - N/A   Clear
10:52 PM 37.9 °F 32.7 °F 21.0 °F 51% 29.77 in 10.0 mi West 6.9 mph - N/A   Clear
11:52 PM 36.0 °F 31.1 °F 21.0 °F 55% 29.78 in 10.0 mi West 5.8 mph - N/A   Clear